"Sample Date","Sample Time","Sample Value","Units","Flow Rate","Laser Status","Micron Size 0","Counts/Channel 0","Micron Size 1","Counts/Channel 1","Micron Size 2","Counts/Channel 2","Micron Size 3","Counts/Channel 3","Micron Size 4","Counts/Channel 4","Micron Size 5","Counts/Channel 5","Micron Size 6","Counts/Channel 6","Micron Size 7","Counts/Channel 7","Micron Size 8","Counts/Channel 8","Micron Size 9","Counts/Channel 9","Micron Size 10","Counts/Channel 10","Micron Size 11","Counts/Channel 11","Micron Size 12","Counts/Channel 12","Micron Size 13","Counts/Channel 13","Micron Size 14","Counts/Channel 14","Micron Size 15","Counts/Channel 15","Micron Size 16","Counts/Channel 16","Micron Size 17","Counts/Channel 17","Micron Size 18","Counts/Channel 18","Micron Size 19","Counts/Channel 19","Micron Size 20","Counts/Channel 20","Micron Size 21","Counts/Channel 21","Micron Size 22","Counts/Channel 22","Micron Size 23","Counts/Channel 23","Micron Size 24","Counts/Channel 24","Micron Size 25","Counts/Channel 25","Micron Size 26","Counts/Channel 26","Micron Size 27","Counts/Channel 27","Micron Size 28","Counts/Channel 28","Micron Size 29","Counts/Channel 29","Micron Size 30","Counts/Channel 30","Micron Size 31","Counts/Channel 31"
"03/02/08","15:00:04",27622.000,"cc",28325.662,1,0.100,25307.000,0.200,1075.000,0.300,490.000,0.500,531.000,1.000,219.000,5.000,0
"03/02/08","15:00:10",27300.000,"cc",28305.020,1,0.100,25059.000,0.200,1049.000,0.300,458.000,0.500,512.000,1.000,222.000,5.000,0
"03/02/08","15:00:16",27775.000,"cc",28305.262,1,0.100,25540.000,0.200,1045.000,0.300,491.000,0.500,508.000,1.000,191.000,5.000,0
"03/02/08","15:00:22",27867.000,"cc",28296.742,1,0.100,25608.000,0.200,1010.000,0.300,480.000,0.500,549.000,1.000,220.000,5.000,0
"03/02/08","15:00:28",27824.000,"cc",28335.457,1,0.100,25631.000,0.200,1011.000,0.300,469.000,0.500,516.000,1.000,197.000,5.000,0
"03/02/08","15:00:34",27305.000,"cc",28322.328,1,0.100,25129.000,0.200,1021.000,0.300,497.000,0.500,468.000,1.000,190.000,5.000,0
"03/02/08","15:00:40",27360.000,"cc",28310.731,1,0.100,25060.000,0.200,1105.000,0.300,494.000,0.500,502.000,1.000,199.000,5.000,0
"03/02/08","15:00:46",27663.000,"cc",28331.600,1,0.100,25457.000,0.200,1033.000,0.300,505.000,0.500,469.000,1.000,199.000,5.000,0
"03/02/08","15:00:52",27303.000,"cc",28355.258,1,0.100,24997.000,0.200,1087.000,0.300,497.000,0.500,496.000,1.000,226.000,5.000,0
"03/02/08","15:00:58",27426.000,"cc",28298.275,1,0.100,25254.000,0.200,1043.000,0.300,448.000,0.500,482.000,1.000,199.000,5.000,0
"03/02/08","15:01:04",27383.000,"cc",28277.518,1,0.100,25065.000,0.200,1051.000,0.300,494.000,0.500,545.000,1.000,228.000,5.000,0
"03/02/08","15:01:10",27696.000,"cc",28342.188,1,0.100,25519.000,0.200,1014.000,0.300,457.000,0.500,487.000,1.000,219.000,5.000,0
"03/02/08","15:01:16",27891.000,"cc",28274.451,1,0.100,25592.000,0.200,1073.000,0.300,483.000,0.500,511.000,1.000,232.000,5.000,0
"03/02/08","15:01:22",27220.000,"cc",28345.254,1,0.100,24899.000,0.200,1055.000,0.300,500.000,0.500,541.000,1.000,225.000,5.000,0
"03/02/08","15:01:28",27393.000,"cc",28310.736,1,0.100,25173.000,0.200,1026.000,0.300,471.000,0.500,537.000,1.000,186.000,5.000,0
"03/02/08","15:01:34",27543.000,"cc",28331.922,1,0.100,25307.000,0.200,1017.000,0.300,487.000,0.500,524.000,1.000,208.000,5.000,0
"03/02/08","15:01:40",27372.000,"cc",28315.359,1,0.100,25109.000,0.200,1084.000,0.300,495.000,0.500,487.000,1.000,197.000,5.000,0
"03/02/08","15:01:46",27554.000,"cc",28337.856,1,0.100,25394.000,0.200,1068.000,0.300,435.000,0.500,457.000,1.000,200.000,5.000,0
"03/02/08","15:01:52",27446.000,"cc",28322.486,1,0.100,25301.000,0.200,975.000,0.300,418.000,0.500,547.000,1.000,205.000,5.000,0
"03/02/08","15:01:58",27546.000,"cc",28312.481,1,0.100,25297.000,0.200,1063.000,0.300,462.000,0.500,499.000,1.000,225.000,5.000,0
"03/02/08","15:02:04",27665.000,"cc",28324.066,1,0.100,25455.000,0.200,1030.000,0.300,465.000,0.500,490.000,1.000,225.000,5.000,0
"03/02/08","15:02:10",27723.000,"cc",28250.498,1,0.100,25491.000,0.200,992.000,0.300,444.000,0.500,550.000,1.000,246.000,5.000,0
"03/02/08","15:02:16",27689.000,"cc",28377.125,1,0.100,25410.000,0.200,1049.000,0.300,478.000,0.500,532.000,1.000,220.000,5.000,0
"03/02/08","15:02:22",27462.000,"cc",28278.973,1,0.100,25252.000,0.200,1024.000,0.300,435.000,0.500,523.000,1.000,228.000,5.000,0
"03/02/08","15:02:28",27638.000,"cc",28278.633,1,0.100,25447.000,0.200,1063.000,0.300,449.000,0.500,484.000,1.000,195.000,5.000,0
"03/02/08","15:02:34",27767.000,"cc",28427.752,1,0.100,25526.000,0.200,1065.000,0.300,478.000,0.500,478.000,1.000,220.000,5.000,0
"03/02/08","15:02:40",27375.000,"cc",28315.721,1,0.100,25182.000,0.200,1028.000,0.300,455.000,0.500,490.000,1.000,220.000,5.000,0
"03/02/08","15:02:46",27483.000,"cc",28290.389,1,0.100,25230.000,0.200,1049.000,0.300,513.000,0.500,492.000,1.000,199.000,5.000,0
"03/02/08","15:02:52",27813.000,"cc",28259.902,1,0.100,25521.000,0.200,1083.000,0.300,499.000,0.500,478.000,1.000,232.000,5.000,0
"03/02/08","15:02:58",27816.000,"cc",28303.414,1,0.100,25564.000,0.200,1090.000,0.300,475.000,0.500,472.000,1.000,215.000,5.000,0
"03/02/08","15:03:04",27615.000,"cc",28285.436,1,0.100,25362.000,0.200,1001.000,0.300,492.000,0.500,506.000,1.000,254.000,5.000,0
"03/02/08","15:03:10",27563.000,"cc",28270.447,1,0.100,25293.000,0.200,1074.000,0.300,496.000,0.500,501.000,1.000,199.000,5.000,0
"03/02/08","15:03:16",27657.000,"cc",28396.129,1,0.100,25464.000,0.200,1030.000,0.300,489.000,0.500,486.000,1.000,188.000,5.000,0
"03/02/08","15:03:22",27518.000,"cc",28352.299,1,0.100,25286.000,0.200,1036.000,0.300,474.000,0.500,503.000,1.000,219.000,5.000,0
"03/02/08","15:03:28",27573.000,"cc",28325.943,1,0.100,25302.000,0.200,1049.000,0.300,499.000,0.500,516.000,1.000,207.000,5.000,0
"03/02/08","15:03:34",27545.000,"cc",28279.910,1,0.100,25278.000,0.200,1038.000,0.300,469.000,0.500,511.000,1.000,249.000,5.000,0
"03/02/08","15:03:40",27717.000,"cc",28330.602,1,0.100,25419.000,0.200,1076.000,0.300,462.000,0.500,537.000,1.000,223.000,5.000,0
"03/02/08","15:03:46",27718.000,"cc",28341.123,1,0.100,25539.000,0.200,1053.000,0.300,430.000,0.500,489.000,1.000,207.000,5.000,0
"03/02/08","15:03:52",27426.000,"cc",28319.125,1,0.100,25197.000,0.200,1084.000,0.300,456.000,0.500,490.000,1.000,198.000,5.000,1.000
"03/02/08","15:03:58",27811.000,"cc",28280.301,1,0.100,25583.000,0.200,1022.000,0.300,493.000,0.500,523.000,1.000,190.000,5.000,0
"03/02/08","15:04:04",27411.000,"cc",28317.283,1,0.100,25203.000,0.200,968.000,0.300,477.000,0.500,528.000,1.000,235.000,5.000,0
"03/02/08","15:04:10",27423.000,"cc",28323.111,1,0.100,25201.000,0.200,1078.000,0.300,459.000,0.500,493.000,1.000,192.000,5.000,0
"03/02/08","15:04:16",27566.000,"cc",28268.436,1,0.100,25235.000,0.200,1111.000,0.300,481.000,0.500,509.000,1.000,230.000,5.000,0
"03/02/08","15:04:22",27469.000,"cc",28322.350,1,0.100,25177.000,0.200,1079.000,0.300,500.000,0.500,502.000,1.000,211.000,5.000,0
"03/02/08","15:04:28",27943.000,"cc",28301.053,1,0.100,25666.000,0.200,1080.000,0.300,481.000,0.500,499.000,1.000,217.000,5.000,0
"03/02/08","15:04:34",27724.000,"cc",28291.393,1,0.100,25449.000,0.200,1074.000,0.300,480.000,0.500,484.000,1.000,237.000,5.000,0
"03/02/08","15:04:40",27512.000,"cc",28261.518,1,0.100,25277.000,0.200,1026.000,0.300,491.000,0.500,495.000,1.000,223.000,5.000,0
"03/02/08","15:04:46",28036.000,"cc",28415.752,1,0.100,25756.000,0.200,1101.000,0.300,455.000,0.500,528.000,1.000,196.000,5.000,0
"03/02/08","15:04:52",27783.000,"cc",28312.852,1,0.100,25510.000,0.200,1028.000,0.300,505.000,0.500,527.000,1.000,213.000,5.000,0
"03/02/08","15:04:58",27661.000,"cc",28291.918,1,0.100,25496.000,0.200,1039.000,0.300,419.000,0.500,516.000,1.000,191.000,5.000,0
"03/02/08","15:05:04",27904.000,"cc",28277.129,1,0.100,25586.000,0.200,1086.000,0.300,485.000,0.500,535.000,1.000,212.000,5.000,0
"03/02/08","15:05:10",27876.000,"cc",28356.943,1,0.100,25655.000,0.200,1067.000,0.300,475.000,0.500,492.000,1.000,187.000,5.000,0
"03/02/08","15:05:16",27646.000,"cc",28297.623,1,0.100,25363.000,0.200,1075.000,0.300,486.000,0.500,504.000,1.000,218.000,5.000,0
"03/02/08","15:05:22",27634.000,"cc",28307.943,1,0.100,25377.000,0.200,1069.000,0.300,476.000,0.500,520.000,1.000,192.000,5.000,0
"03/02/08","15:05:28",27911.000,"cc",28316.475,1,0.100,25630.000,0.200,1047.000,0.300,463.000,0.500,548.000,1.000,223.000,5.000,0
"03/02/08","15:05:34",27560.000,"cc",28330.971,1,0.100,25259.000,0.200,1054.000,0.300,466.000,0.500,541.000,1.000,240.000,5.000,0
"03/02/08","15:05:40",27691.000,"cc",28326.260,1,0.100,25460.000,0.200,1035.000,0.300,487.000,0.500,506.000,1.000,203.000,5.000,0
"03/02/08","15:05:46",28040.000,"cc",28313.842,1,0.100,25745.000,0.200,1047.000,0.300,495.000,0.500,530.000,1.000,223.000,5.000,0
"03/02/08","15:05:52",27877.000,"cc",28296.537,1,0.100,25641.000,0.200,1009.000,0.300,495.000,0.500,511.000,1.000,221.000,5.000,0
"03/02/08","15:05:58",27621.000,"cc",28281.332,1,0.100,25351.000,0.200,1047.000,0.300,490.000,0.500,507.000,1.000,226.000,5.000,0
"03/02/08","15:06:04",27740.000,"cc",28347.523,1,0.100,25531.000,0.200,1058.000,0.300,461.000,0.500,496.000,1.000,194.000,5.000,0
"03/02/08","15:06:10",27199.000,"cc",28375.287,1,0.100,25094.000,0.200,981.000,0.300,426.000,0.500,502.000,1.000,196.000,5.000,0
"03/02/08","15:06:16",27810.000,"cc",28336.697,1,0.100,25556.000,0.200,1055.000,0.300,451.000,0.500,546.000,1.000,202.000,5.000,0
"03/02/08","15:06:22",27763.000,"cc",28255.232,1,0.100,25512.000,0.200,1045.000,0.300,476.000,0.500,494.000,1.000,236.000,5.000,0
"03/02/08","15:06:28",27552.000,"cc",28290.416,1,0.100,25274.000,0.200,1074.000,0.300,483.000,0.500,505.000,1.000,216.000,5.000,0
"03/02/08","15:06:34",27605.000,"cc",28308.955,1,0.100,25357.000,0.200,1074.000,0.300,441.000,0.500,531.000,1.000,202.000,5.000,0
"03/02/08","15:06:40",27824.000,"cc",28325.996,1,0.100,25510.000,0.200,1098.000,0.300,460.000,0.500,524.000,1.000,232.000,5.000,0
"03/02/08","15:06:46",27637.000,"cc",28364.668,1,0.100,25454.000,0.200,1008.000,0.300,450.000,0.500,513.000,1.000,212.000,5.000,0
"03/02/08","15:06:52",27825.000,"cc",28391.850,1,0.100,25652.000,0.200,1000.000,0.300,435.000,0.500,496.000,1.000,242.000,5.000,0
"03/02/08","15:06:58",27539.000,"cc",28285.258,1,0.100,25247.000,0.200,1106.000,0.300,422.000,0.500,534.000,1.000,230.000,5.000,0
"03/02/08","15:07:04",27783.000,"cc",28312.572,1,0.100,25614.000,0.200,1047.000,0.300,453.000,0.500,470.000,1.000,199.000,5.000,0
"03/02/08","15:07:10",27741.000,"cc",28348.500,1,0.100,25392.000,0.200,1061.000,0.300,501.000,0.500,551.000,1.000,236.000,5.000,0
"03/02/08","15:07:16",27560.000,"cc",28342.484,1,0.100,25357.000,0.200,1054.000,0.300,491.000,0.500,476.000,1.000,182.000,5.000,0
"03/02/08","15:07:22",27883.000,"cc",28295.482,1,0.100,25549.000,0.200,1080.000,0.300,519.000,0.500,518.000,1.000,217.000,5.000,0
"03/02/08","15:07:28",27490.000,"cc",28256.006,1,0.100,25268.000,0.200,1040.000,0.300,468.000,0.500,479.000,1.000,235.000,5.000,0
"03/02/08","15:07:34",27683.000,"cc",28300.928,1,0.100,25412.000,0.200,1093.000,0.300,458.000,0.500,514.000,1.000,206.000,5.000,0
"03/02/08","15:07:40",27551.000,"cc",28264.693,1,0.100,25292.000,0.200,1061.000,0.300,490.000,0.500,506.000,1.000,202.000,5.000,0
"03/02/08","15:07:46",27793.000,"cc",28328.856,1,0.100,25545.000,0.200,1031.000,0.300,492.000,0.500,517.000,1.000,208.000,5.000,0
"03/02/08","15:07:52",27901.000,"cc",28320.916,1,0.100,25669.000,0.200,1049.000,0.300,467.000,0.500,488.000,1.000,228.000,5.000,0
"03/02/08","15:07:58",27669.000,"cc",28324.967,1,0.100,25436.000,0.200,1061.000,0.300,411.000,0.500,522.000,1.000,239.000,5.000,0
"03/02/08","15:08:04",27579.000,"cc",28366.131,1,0.100,25371.000,0.200,1017.000,0.300,443.000,0.500,519.000,1.000,229.000,5.000,0
"03/02/08","15:08:10",27633.000,"cc",28300.273,1,0.100,25416.000,0.200,1053.000,0.300,437.000,0.500,506.000,1.000,221.000,5.000,0
"03/02/08","15:08:16",27942.000,"cc",28233.182,1,0.100,25744.000,0.200,1016.000,0.300,423.000,0.500,518.000,1.000,241.000,5.000,0
"03/02/08","15:08:22",27741.000,"cc",28305.592,1,0.100,25550.000,0.200,1017.000,0.300,460.000,0.500,497.000,1.000,217.000,5.000,0
"03/02/08","15:08:28",28507.000,"cc",28377.066,1,0.100,26228.000,0.200,1069.000,0.300,456.000,0.500,529.000,1.000,225.000,5.000,0
"03/02/08","15:08:34",27793.000,"cc",28341.678,1,0.100,25482.000,0.200,1104.000,0.300,468.000,0.500,522.000,1.000,216.000,5.000,1.000
"03/02/08","15:08:40",27908.000,"cc",28278.006,1,0.100,25612.000,0.200,1070.000,0.300,479.000,0.500,525.000,1.000,222.000,5.000,0
"03/02/08","15:08:46",27886.000,"cc",28318.080,1,0.100,25622.000,0.200,1019.000,0.300,478.000,0.500,554.000,1.000,213.000,5.000,0
"03/02/08","15:08:52",27576.000,"cc",28313.816,1,0.100,25429.000,0.200,1043.000,0.300,429.000,0.500,469.000,1.000,206.000,5.000,0
"03/02/08","15:08:58",27867.000,"cc",28322.172,1,0.100,25618.000,0.200,1059.000,0.300,466.000,0.500,526.000,1.000,198.000,5.000,0
"03/02/08","15:09:04",27840.000,"cc",28318.906,1,0.100,25583.000,0.200,1043.000,0.300,519.000,0.500,484.000,1.000,211.000,5.000,0
"03/02/08","15:09:10",28068.000,"cc",28306.619,1,0.100,25770.000,0.200,1070.000,0.300,510.000,0.500,474.000,1.000,244.000,5.000,0
"03/02/08","15:09:16",28167.000,"cc",28338.533,1,0.100,25837.000,0.200,1100.000,0.300,510.000,0.500,489.000,1.000,231.000,5.000,0
"03/02/08","15:09:22",27799.000,"cc",28305.629,1,0.100,25548.000,0.200,1079.000,0.300,478.000,0.500,486.000,1.000,208.000,5.000,0
"03/02/08","15:09:28",28427.000,"cc",28313.738,1,0.100,26161.000,0.200,1082.000,0.300,462.000,0.500,536.000,1.000,186.000,5.000,0
"03/02/08","15:09:34",28016.000,"cc",28362.520,1,0.100,25810.000,0.200,1027.000,0.300,456.000,0.500,502.000,1.000,221.000,5.000,0
"03/02/08","15:09:40",28117.000,"cc",28308.289,1,0.100,25813.000,0.200,1109.000,0.300,443.000,0.500,519.000,1.000,233.000,5.000,0
"03/02/08","15:09:46",27826.000,"cc",28324.754,1,0.100,25554.000,0.200,1050.000,0.300,467.000,0.500,506.000,1.000,249.000,5.000,0
"03/02/08","15:09:52",27844.000,"cc",28345.307,1,0.100,25655.000,0.200,1003.000,0.300,463.000,0.500,512.000,1.000,211.000,5.000,0
"03/02/08","15:09:58",27891.000,"cc",28272.826,1,0.100,25683.000,0.200,1039.000,0.300,422.000,0.500,515.000,1.000,232.000,5.000,0
"03/02/08","15:10:04",27894.000,"cc",28282.672,1,0.100,25556.000,0.200,1071.000,0.300,507.000,0.500,515.000,1.000,245.000,5.000,0
"03/02/08","15:10:10",28071.000,"cc",28361.492,1,0.100,25780.000,0.200,1104.000,0.300,460.000,0.500,503.000,1.000,224.000,5.000,0
"03/02/08","15:10:16",27725.000,"cc",28365.824,1,0.100,25466.000,0.200,1021.000,0.300,486.000,0.500,530.000,1.000,222.000,5.000,0
"03/02/08","15:10:22",27929.000,"cc",28275.416,1,0.100,25694.000,0.200,1050.000,0.300,448.000,0.500,538.000,1.000,199.000,5.000,0
"03/02/08","15:10:28",28050.000,"cc",28362.596,1,0.100,25752.000,0.200,1054.000,0.300,486.000,0.500,514.000,1.000,244.000,5.000,0
"03/02/08","15:10:34",27967.000,"cc",28328.955,1,0.100,25636.000,0.200,1103.000,0.300,476.000,0.500,514.000,1.000,238.000,5.000,0
"03/02/08","15:10:40",28388.000,"cc",28274.488,1,0.100,26043.000,0.200,1119.000,0.300,459.000,0.500,520.000,1.000,247.000,5.000,0
"03/02/08","15:10:46",27990.000,"cc",28335.701,1,0.100,25702.000,0.200,1062.000,0.300,495.000,0.500,519.000,1.000,212.000,5.000,0
"03/02/08","15:10:52",27938.000,"cc",28275.076,1,0.100,25644.000,0.200,1080.000,0.300,489.000,0.500,523.000,1.000,202.000,5.000,0
"03/02/08","15:10:58",28340.000,"cc",28329.326,1,0.100,26010.000,0.200,1092.000,0.300,465.000,0.500,561.000,1.000,212.000,5.000,0
"03/02/08","15:11:04",28266.000,"cc",28304.643,1,0.100,25990.000,0.200,1095.000,0.300,453.000,0.500,498.000,1.000,230.000,5.000,0
"03/02/08","15:11:10",28450.000,"cc",28298.701,1,0.100,26184.000,0.200,1060.000,0.300,452.000,0.500,539.000,1.000,215.000,5.000,0
"03/02/08","15:11:16",28309.000,"cc",28348.979,1,0.100,26057.000,0.200,1026.000,0.300,474.000,0.500,521.000,1.000,231.000,5.000,0
"03/02/08","15:11:22",28226.000,"cc",28309.803,1,0.100,25920.000,0.200,1090.000,0.300,471.000,0.500,508.000,1.000,237.000,5.000,0
"03/02/08","15:11:28",28263.000,"cc",28350.981,1,0.100,26010.000,0.200,1076.000,0.300,455.000,0.500,475.000,1.000,247.000,5.000,0
"03/02/08","15:11:34",28154.000,"cc",28344.498,1,0.100,25927.000,0.200,1046.000,0.300,438.000,0.500,515.000,1.000,227.000,5.000,1.000
"03/02/08","15:11:40",28361.000,"cc",28300.350,1,0.100,26105.000,0.200,1037.000,0.300,448.000,0.500,516.000,1.000,255.000,5.000,0
"03/02/08","15:11:46",28087.000,"cc",28281.250,1,0.100,25885.000,0.200,1017.000,0.300,451.000,0.500,519.000,1.000,215.000,5.000,0
"03/02/08","15:11:52",28237.000,"cc",28318.014,1,0.100,25956.000,0.200,1022.000,0.300,490.000,0.500,521.000,1.000,247.000,5.000,1.000
"03/02/08","15:11:58",28199.000,"cc",28328.221,1,0.100,25920.000,0.200,1134.000,0.300,425.000,0.500,486.000,1.000,234.000,5.000,0
"03/02/08","15:12:04",28369.000,"cc",28266.381,1,0.100,26081.000,0.200,1084.000,0.300,451.000,0.500,509.000,1.000,244.000,5.000,0
"03/02/08","15:12:10",28607.000,"cc",28300.078,1,0.100,26335.000,0.200,1122.000,0.300,434.000,0.500,518.000,1.000,198.000,5.000,0
"03/02/08","15:12:16",28469.000,"cc",28361.963,1,0.100,26162.000,0.200,1061.000,0.300,502.000,0.500,516.000,1.000,228.000,5.000,0
"03/02/08","15:12:22",28463.000,"cc",28352.506,1,0.100,26240.000,0.200,1030.000,0.300,446.000,0.500,529.000,1.000,218.000,5.000,0
"03/02/08","15:12:28",28465.000,"cc",28309.121,1,0.100,26067.000,0.200,1133.000,0.300,495.000,0.500,531.000,1.000,239.000,5.000,0
"03/02/08","15:12:34",28517.000,"cc",28286.488,1,0.100,26272.000,0.200,1041.000,0.300,438.000,0.500,539.000,1.000,227.000,5.000,0
"03/02/08","15:12:40",28459.000,"cc",28356.836,1,0.100,26153.000,0.200,1060.000,0.300,511.000,0.500,480.000,1.000,255.000,5.000,0
"03/02/08","15:12:46",28682.000,"cc",28325.438,1,0.100,26340.000,0.200,1102.000,0.300,482.000,0.500,519.000,1.000,239.000,5.000,0
"03/02/08","15:12:52",28583.000,"cc",28199.273,1,0.100,26265.000,0.200,1078.000,0.300,474.000,0.500,517.000,1.000,249.000,5.000,0
"03/02/08","15:12:58",28681.000,"cc",28325.506,1,0.100,26478.000,0.200,1055.000,0.300,419.000,0.500,485.000,1.000,244.000,5.000,0
"03/02/08","15:13:04",28371.000,"cc",28409.898,1,0.100,26076.000,0.200,1096.000,0.300,466.000,0.500,484.000,1.000,249.000,5.000,0
"03/02/08","15:13:10",28335.000,"cc",28283.578,1,0.100,26042.000,0.200,1057.000,0.300,481.000,0.500,521.000,1.000,234.000,5.000,0
"03/02/08","15:13:16",28152.000,"cc",28302.264,1,0.100,25969.000,0.200,1056.000,0.300,452.000,0.500,488.000,1.000,187.000,5.000,0
"03/02/08","15:13:22",28449.000,"cc",28304.783,1,0.100,26166.000,0.200,1018.000,0.300,485.000,0.500,550.000,1.000,230.000,5.000,0
"03/02/08","15:13:28",28390.000,"cc",28322.145,1,0.100,26193.000,0.200,1032.000,0.300,456.000,0.500,494.000,1.000,215.000,5.000,0
"03/02/08","15:13:34",28379.000,"cc",28364.770,1,0.100,26204.000,0.200,1037.000,0.300,443.000,0.500,473.000,1.000,222.000,5.000,0
"03/02/08","15:13:40",28460.000,"cc",28330.506,1,0.100,26139.000,0.200,1083.000,0.300,452.000,0.500,519.000,1.000,267.000,5.000,0
"03/02/08","15:13:46",28578.000,"cc",28344.988,1,0.100,26305.000,0.200,1033.000,0.300,479.000,0.500,534.000,1.000,227.000,5.000,0
"03/02/08","15:13:52",28576.000,"cc",28271.088,1,0.100,26311.000,0.200,1064.000,0.300,441.000,0.500,541.000,1.000,219.000,5.000,0
"03/02/08","15:13:58",28425.000,"cc",28282.002,1,0.100,26237.000,0.200,1029.000,0.300,426.000,0.500,501.000,1.000,232.000,5.000,0
"03/02/08","15:14:04",28537.000,"cc",28374.053,1,0.100,26343.000,0.200,1051.000,0.300,457.000,0.500,463.000,1.000,223.000,5.000,0
"03/02/08","15:14:10",28239.000,"cc",28338.627,1,0.100,25900.000,0.200,1086.000,0.300,490.000,0.500,525.000,1.000,238.000,5.000,0
"03/02/08","15:14:16",28299.000,"cc",28306.537,1,0.100,26139.000,0.200,1009.000,0.300,434.000,0.500,461.000,1.000,256.000,5.000,0
"03/02/08","15:14:22",28244.000,"cc",28256.537,1,0.100,26034.000,0.200,1018.000,0.300,446.000,0.500,504.000,1.000,242.000,5.000,0
"03/02/08","15:14:28",28425.000,"cc",28343.408,1,0.100,26201.000,0.200,1014.000,0.300,463.000,0.500,490.000,1.000,257.000,5.000,0
"03/02/08","15:14:34",28254.000,"cc",28332.027,1,0.100,26026.000,0.200,1076.000,0.300,422.000,0.500,507.000,1.000,223.000,5.000,0
"03/02/08","15:14:40",28395.000,"cc",28317.959,1,0.100,26209.000,0.200,1041.000,0.300,426.000,0.500,514.000,1.000,205.000,5.000,0
"03/02/08","15:14:46",28595.000,"cc",28322.647,1,0.100,26275.000,0.200,1093.000,0.300,462.000,0.500,534.000,1.000,231.000,5.000,0
"03/02/08","15:14:52",28571.000,"cc",28276.191,1,0.100,26319.000,0.200,1040.000,0.300,499.000,0.500,502.000,1.000,211.000,5.000,0
"03/02/08","15:14:58",28434.000,"cc",28292.367,1,0.100,26162.000,0.200,1006.000,0.300,471.000,0.500,567.000,1.000,228.000,5.000,0
"03/02/08","15:15:04",28241.000,"cc",28252.650,1,0.100,25995.000,0.200,1001.000,0.300,452.000,0.500,554.000,1.000,239.000,5.000,0
"03/02/08","15:15:10",28275.000,"cc",28344.541,1,0.100,26044.000,0.200,1029.000,0.300,454.000,0.500,510.000,1.000,238.000,5.000,0
"03/02/08","15:15:16",28494.000,"cc",28331.012,1,0.100,26235.000,0.200,1042.000,0.300,478.000,0.500,545.000,1.000,194.000,5.000,0
"03/02/08","15:15:22",28518.000,"cc",28310.400,1,0.100,26312.000,0.200,1022.000,0.300,440.000,0.500,541.000,1.000,203.000,5.000,0
"03/02/08","15:15:28",28272.000,"cc",28342.813,1,0.100,25956.000,0.200,1079.000,0.300,483.000,0.500,540.000,1.000,214.000,5.000,0
"03/02/08","15:15:34",28646.000,"cc",28271.938,1,0.100,26335.000,0.200,1073.000,0.300,471.000,0.500,539.000,1.000,228.000,5.000,0
"03/02/08","15:15:40",28719.000,"cc",28335.674,1,0.100,26417.000,0.200,1091.000,0.300,442.000,0.500,523.000,1.000,246.000,5.000,0
"03/02/08","15:15:46",28386.000,"cc",28327.729,1,0.100,26130.000,0.200,1052.000,0.300,454.000,0.500,523.000,1.000,227.000,5.000,0
"03/02/08","15:15:52",28237.000,"cc",28349.186,1,0.100,26005.000,0.200,995.000,0.300,472.000,0.500,520.000,1.000,245.000,5.000,0
"03/02/08","15:15:58",28347.000,"cc",28258.863,1,0.100,26099.000,0.200,1038.000,0.300,449.000,0.500,529.000,1.000,232.000,5.000,0
"03/02/08","15:16:04",28443.000,"cc",28297.070,1,0.100,26229.000,0.200,984.000,0.300,471.000,0.500,540.000,1.000,219.000,5.000,0
"03/02/08","15:16:10",28191.000,"cc",28415.736,1,0.100,25973.000,0.200,1076.000,0.300,452.000,0.500,472.000,1.000,218.000,5.000,0
"03/02/08","15:16:16",28325.000,"cc",28290.410,1,0.100,26134.000,0.200,1035.000,0.300,434.000,0.500,492.000,1.000,230.000,5.000,0
"03/02/08","15:16:22",28245.000,"cc",28267.928,1,0.100,25976.000,0.200,1040.000,0.300,478.000,0.500,544.000,1.000,207.000,5.000,0
"03/02/08","15:16:28",28273.000,"cc",28327.748,1,0.100,26011.000,0.200,1039.000,0.300,477.000,0.500,524.000,1.000,222.000,5.000,0
"03/02/08","15:16:34",27982.000,"cc",28300.453,1,0.100,25799.000,0.200,1013.000,0.300,446.000,0.500,507.000,1.000,217.000,5.000,0
"03/02/08","15:16:40",28483.000,"cc",28308.963,1,0.100,26179.000,0.200,1086.000,0.300,502.000,0.500,500.000,1.000,216.000,5.000,0
"03/02/08","15:16:46",28669.000,"cc",28325.648,1,0.100,26349.000,0.200,1080.000,0.300,513.000,0.500,512.000,1.000,215.000,5.000,0
"03/02/08","15:16:52",28150.000,"cc",28334.713,1,0.100,25802.000,0.200,1060.000,0.300,496.000,0.500,550.000,1.000,242.000,5.000,0
"03/02/08","15:16:58",28107.000,"cc",28340.229,1,0.100,25899.000,0.200,1053.000,0.300,436.000,0.500,496.000,1.000,223.000,5.000,0
"03/02/08","15:17:04",28135.000,"cc",28302.000,1,0.100,25875.000,0.200,1071.000,0.300,423.000,0.500,545.000,1.000,221.000,5.000,0
"03/02/08","15:17:10",28644.000,"cc",28315.789,1,0.100,26420.000,0.200,1076.000,0.300,456.000,0.500,503.000,1.000,189.000,5.000,0
"03/02/08","15:17:16",28430.000,"cc",28328.158,1,0.100,26205.000,0.200,1036.000,0.300,470.000,0.500,493.000,1.000,226.000,5.000,0